Back to catalog

STARLINK-36358

AliveCommunicationsSSO
NORAD 67598·PAYLOAD·🇺🇸 United States

Launched Jan 29, 2026 from Vandenberg Space Force Base

Loading…

Next Passes (next 24 hours)

TLE

FreshSource: CelesTrak SupGP

Epoch: Sep 15, 2026, 03:13 UTC

1 67598C 26018K   26258.13451389 -.00020088  00000+0 -62351-3 0  2586
2 67598  97.2846 321.6356 0001006  92.4862 350.7948 15.33453669    19

Track STARLINK-36358 in real time with AllMySat

Download on the App Store